PDT,Max TemperatureF,Mean TemperatureF,Min TemperatureF,Max Dew PointF,MeanDew PointF,Min DewpointF,Max Humidity, Mean Humidity, Min Humidity, Max Sea Level PressureIn, Mean Sea Level PressureIn, Min Sea Level PressureIn, Max VisibilityMiles, Mean VisibilityMiles, Min VisibilityMiles, Max Wind SpeedMPH, Mean Wind SpeedMPH, Max Gust SpeedMPH,PrecipitationIn, CloudCover, Events, WindDirDegrees
2012-10-1,82,64,46,38,33,18,65,37,9,30.24,30.12,29.96,10,10,9,14,5,17,0.00,0,,147
2012-10-2,78,59,40,51,30,12,69,42,14,30.21,30.02,29.90,10,7,1,37,14,44,0.00,3,,317
2012-10-3,60,44,28,24,18,12,53,38,22,30.39,30.30,30.23,10,8,1,12,6,15,0.00,0,,71
2012-10-4,61,45,29,30,23,15,69,46,22,30.30,30.26,30.23,10,10,1,17,7,23,0.00,0,,77
2012-10-5,62,45,28,24,20,17,63,43,22,30.34,30.29,30.26,10,9,1,14,7,17,0.00,0,,121
2012-10-6,65,47,29,22,20,16,63,40,16,30.31,30.24,30.16,10,9,1,14,8,18,0.00,0,,112
2012-10-7,69,51,32,23,20,18,51,33,15,30.17,30.08,29.95,10,10,8,10,5,13,0.00,0,,143
2012-10-8,71,52,32,22,20,16,56,35,14,29.97,29.94,29.89,10,9,1,14,6,15,0.00,0,Rain,150
2012-10-9,73,57,40,33,26,19,50,37,23,30.07,30.00,29.95,10,9,1,13,7,14,0.00,0,,115
2012-10-10,76,60,43,34,32,30,62,42,21,29.96,29.90,29.81,10,9,0,13,6,14,0.00,0,,152
2012-10-11,75,59,42,38,34,31,62,43,23,29.93,29.84,29.76,10,9,2,13,6,15,0.00,0,,95
2012-10-12,71,56,40,53,42,31,100,66,31,30.02,29.87,29.75,10,8,2,23,8,26,0.31,4,Rain,226
2012-10-13,67,59,50,56,52,48,100,79,58,30.20,30.13,30.01,10,9,5,22,7,26,0.04,5,Rain,233
2012-10-14,71,59,47,55,52,47,100,75,49,30.15,30.04,29.94,10,10,0,16,5,22,0.09,2,Rain,69
2012-10-15,71,63,55,59,56,53,100,81,61,29.95,29.83,29.63,10,10,5,18,7,24,0.32,6,Rain,191
2012-10-16,65,53,41,61,46,36,77,62,47,30.19,29.87,29.56,10,9,2,47,24,56,0.16,4,Rain-Thunderstorm,265
2012-10-17,59,48,37,39,35,30,85,61,37,30.28,30.24,30.21,10,9,0,15,6,18,0.00,0,,228
2012-10-18,66,51,36,41,37,31,85,59,32,30.23,30.07,29.85,10,9,0,18,6,22,0.00,0,,331
2012-10-19,64,58,52,54,48,40,86,66,46,29.90,29.80,29.69,10,10,10,23,9,28,0.01,7,Rain,196
2012-10-20,55,48,40,48,37,33,83,65,46,29.90,29.85,29.75,10,10,9,25,15,33,0.02,5,Rain,257
2012-10-21,54,43,31,34,31,29,92,68,44,29.90,29.85,29.75,10,10,9,10,5,14,0.00,1,,127
2012-10-22,44,37,30,40,35,30,100,88,76,29.74,29.64,29.52,10,6,0,13,3,15,0.05,5,Fog-Rain,203
2012-10-23,50,41,32,38,35,31,100,81,61,29.93,29.83,29.69,10,8,0,16,7,20,T,4,Fog-Rain,157
2012-10-24,49,41,32,41,35,28,92,77,61,30.13,29.98,29.88,10,10,7,15,6,22,0.03,5,Rain,144
2012-10-25,50,42,33,41,37,32,100,83,66,30.42,30.33,30.15,10,8,0,10,5,14,0.05,6,Fog-Rain,259
2012-10-26,48,41,34,41,36,30,96,81,65,30.36,30.19,30.10,10,10,10,16,5,20,0.01,6,Rain,123
2012-10-27,48,41,34,49,44,38,96,81,65,30.12,30.00,29.87,10,7,0,16,5,20,0.01,7,Fog-Rain,157
2012-10-28,59,56,52,54,52,49,100,88,75,29.93,29.89,29.84,10,8,1,18,7,23,0.25,8,Rain,184
2012-10-29,67,58,49,56,51,46,83,66,48,30.04,29.94,29.82,10,10,9,25,10,30,T,4,Rain,230
2012-10-30,70,60,49,54,48,45,89,67,45,30.00,29.88,29.80,10,10,7,15,5,20,0.00,4,,150
2012-10-31,68,59,49,52,47,37,100,67,34,29.80,29.72,29.62,10,8,0,23,6,26,0.00,2,Fog,66